LEMD Weather Reports


Display with metric or nautical units.
time (UTC)temp
F
wind
direction
speed
MPH
gust
MPH
rain 1hr
in
rain 24hr
in
rain mn
in
humidity
%
barometer
mb
20260507194504 55 360 5.0 0.0 0.00 0.00 0.00 71 1011.0
20260507193004 57 360 3.0 0.0 0.00 0.00 0.00 67 1010.0
20260507190005 57 360 3.0 0.0 0.00 0.00 0.00 67 1010.0
20260507184504 57 360 3.0 0.0 0.00 0.00 0.00 67 1010.0
20260507181504 57 340 5.0 0.0 0.00 0.00 0.00 67 1011.0
20260507180005 55 0 2.0 0.0 0.00 0.00 0.00 82 1010.0
20260507174504 55 0 2.0 0.0 0.00 0.00 0.00 82 1010.0
20260507171504 52 90 5.0 0.0 0.00 0.00 0.00 93 1010.0
20260507164504 52 80 6.0 0.0 0.00 0.00 0.00 93 1010.0
20260507163004 52 10 6.0 0.0 0.00 0.00 0.00 87 1011.0
20260507161503 52 10 6.0 0.0 0.00 0.00 0.00 87 1011.0
20260507154504 54 260 6.0 0.0 0.00 0.00 0.00 76 1012.0
20260507151504 54 330 2.0 0.0 0.00 0.00 0.00 87 1012.0
20260507150009 52 110 5.0 0.0 0.00 0.00 0.00 87 1011.0
20260507144504 52 110 5.0 0.0 0.00 0.00 0.00 87 1011.0
20260507143005 54 100 9.0 0.0 0.00 0.00 0.00 76 1011.0
20260507130005 63 110 3.0 0.0 0.00 0.00 0.00 55 1010.0
20260507124504 63 110 3.0 0.0 0.00 0.00 0.00 55 1010.0
20260507123004 63 0 2.0 0.0 0.00 0.00 0.00 55 1010.0
20260507121504 63 0 2.0 0.0 0.00 0.00 0.00 55 1010.0
20260507120005 63 120 2.0 0.0 0.00 0.00 0.00 55 1011.0
20260507114504 63 340 3.0 0.0 0.00 0.00 0.00 59 1011.0
20260507111506 61 130 2.0 0.0 0.00 0.00 0.00 59 1011.0
20260507110005 61 350 3.0 0.0 0.00 0.00 0.00 59 1012.0
20260507104504 61 350 3.0 0.0 0.00 0.00 0.00 59 1012.0
20260507101505 59 20 2.0 0.0 0.00 0.00 0.00 62 1012.0
20260507094504 59 30 3.0 0.0 0.00 0.00 0.00 62 1012.0
20260507091504 55 0 1.0 0.0 0.00 0.00 0.00 71 1012.0
20260507084504 55 0 2.0 0.0 0.00 0.00 0.00 71 1012.0
20260507083004 54 0 2.0 0.0 0.00 0.00 0.00 71 1012.0
20260507081504 54 0 2.0 0.0 0.00 0.00 0.00 71 1012.0
20260507074504 55 90 3.0 0.0 0.00 0.00 0.00 66 1012.0
20260507073004 54 0 2.0 0.0 0.00 0.00 0.00 71 1011.0
20260507071503 54 0 2.0 0.0 0.00 0.00 0.00 71 1011.0
20260507063004 52 330 3.0 0.0 0.00 0.00 0.00 76 1011.0
20260507061504 52 330 3.0 0.0 0.00 0.00 0.00 76 1011.0
20260507060004 50 340 3.0 0.0 0.00 0.00 0.00 81 1011.0
20260507054504 50 340 3.0 0.0 0.00 0.00 0.00 81 1011.0
20260507053005 50 0 2.0 0.0 0.00 0.00 0.00 76 1011.0
20260507051504 50 0 2.0 0.0 0.00 0.00 0.00 76 1011.0
20260507044504 50 340 7.0 0.0 0.00 0.00 0.00 76 1011.0
20260507034504 50 350 7.0 0.0 0.00 0.00 0.00 76 1011.0
20260507033004 52 350 6.0 0.0 0.00 0.00 0.00 66 1011.0
20260507030004 52 360 5.0 0.0 0.00 0.00 0.00 66 1011.0
20260507024503 52 360 5.0 0.0 0.00 0.00 0.00 66 1011.0
20260507023004 52 340 6.0 0.0 0.00 0.00 0.00 66 1011.0
20260507021504 52 340 6.0 0.0 0.00 0.00 0.00 66 1011.0
20260507020005 50 0 2.0 0.0 0.00 0.00 0.00 66 1011.0
20260507011503 50 0 1.0 0.0 0.00 0.00 0.00 71 1011.0
20260507010004 50 20 1.0 0.0 0.00 0.00 0.00 71 1011.0
20260507004503 50 20 1.0 0.0 0.00 0.00 0.00 71 1011.0
20260507003005 52 350 5.0 0.0 0.00 0.00 0.00 66 1011.0
20260507001504 52 350 5.0 0.0 0.00 0.00 0.00 66 1011.0
20260506234504 52 350 3.0 0.0 0.00 0.00 0.00 62 1011.0
20260506233005 52 340 3.0 0.0 0.00 0.00 0.00 62 1010.0
20260506230004 54 350 5.0 0.0 0.00 0.00 0.00 54 1010.0
20260506224503 54 350 5.0 0.0 0.00 0.00 0.00 54 1010.0
20260506221504 55 350 2.0 0.0 0.00 0.00 0.00 43 1010.0
20260506213004 55 50 3.0 0.0 0.00 0.00 0.00 40 1010.0
20260506211504 55 50 3.0 0.0 0.00 0.00 0.00 40 1010.0
20260506210005 57 40 2.0 0.0 0.00 0.00 0.00 44 1010.0
20260506204504 57 40 2.0 0.0 0.00 0.00 0.00 44 1010.0
20260506201504 61 0 2.0 0.0 0.00 0.00 0.00 33 1010.0